Location: Newark
(25.6108°S, 54.5803°W)
Time: 21:40:55
(UTC+00:00)

Courier 1B - Pass Details

Date: 28 October 2020
Orbit: 962 x 1209 km, 28.3° (Epoch: 24 November)

Event Time Altitude Azimuth Distance (km) Brightness Sun altitude
Rises 04:52:04 0° 264° (W) 4,093 - -45.4°
Reaches altitude 10° 04:54:55 10° 261° (W) 3,143 - -45.0°
Maximum altitude 05:02:49 74° 177° (S) 1,255 - -44.0°
Exits shadow 05:07:38 26° 96° (E) 2,162 9.5 -43.4°
Drops below altitude 10° 05:10:38 10° 91° (E) 3,115 10.4 -43.0°
Sets 05:13:27 0° 89° (E) 4,054 11.1 -42.6°
